owner,sensor,date,latitude,longitude,vertical_datum,sea_water_practical_salinity,qcFlag 
NERRS,ioos:station:NOAA.NERRS:gndbcwq:1,2015-09-01T00:00:00Z,30.3836,-88.4364,0.49,23.3,1111122 
NERRS,ioos:station:NOAA.NERRS:gndbcwq:1,2015-09-01T01:00:00Z,30.3836,-88.4364,0.54,23.5,1111122 
NERRS,ioos:station:NOAA.NERRS:gndbcwq:1,2015-09-01T02:00:00Z,30.3836,-88.4364,0.56,23.5,1111122 
NERRS,ioos:station:NOAA.NERRS:gndbcwq:1,2015-09-01T03:00:00Z,30.3836,-88.4364,0.58,23.9,1111122 
NERRS,ioos:station:NOAA.NERRS:gndbcwq:1,2015-09-01T04:00:00Z,30.3836,-88.4364,0.59,23.6,1111122 
NERRS,ioos:station:NOAA.NERRS:gndbcwq:1,2015-09-01T05:00:00Z,30.3836,-88.4364,0.58,23.1,1111122 
NERRS,ioos:station:NOAA.NERRS:gndbcwq:1,2015-09-01T07:00:00Z,30.3836,-88.4364,0.58,24.2,1111122 
NERRS,ioos:station:NOAA.NERRS:gndbcwq:1,2015-09-01T08:00:00Z,30.3836,-88.4364,0.56,24.0,1111122 
NERRS,ioos:station:NOAA.NERRS:gndbcwq:1,2015-09-01T09:00:00Z,30.3836,-88.4364,0.54,21.8,1111122 
NERRS,ioos:station:NOAA.NERRS:gndbcwq:1,2015-09-01T10:00:00Z,30.3836,-88.4364,0.47,21.3,1111122 
NERRS,ioos:station:NOAA.NERRS:gndbcwq:1,2015-09-01T11:00:00Z,30.3836,-88.4364,0.43,21.2,1111122 
NERRS,ioos:station:NOAA.NERRS:gndbcwq:1,2015-09-01T12:00:00Z,30.3836,-88.4364,0.41,21.0,1111122 
NERRS,ioos:station:NOAA.NERRS:gndbcwq:1,2015-09-01T13:00:00Z,30.3836,-88.4364,0.46,23.5,1111122 
NERRS,ioos:station:NOAA.NERRS:gndbcwq:1,2015-09-01T14:00:00Z,30.3836,-88.4364,0.53,23.5,1111122 
NERRS,ioos:station:NOAA.NERRS:gndbcwq:1,2015-09-01T15:00:00Z,30.3836,-88.4364,0.6,23.8,1111122 
NERRS,ioos:station:NOAA.NERRS:gndbcwq:1,2015-09-01T16:00:00Z,30.3836,-88.4364,0.62,24.4,1111122 
NERRS,ioos:station:NOAA.NERRS:gndbcwq:1,2015-09-01T17:00:00Z,30.3836,-88.4364,0.6,24.5,1111122 
NERRS,ioos:station:NOAA.NERRS:gndbcwq:1,2015-09-01T18:00:00Z,30.3836,-88.4364,0.59,24.2,1111122 
NERRS,ioos:station:NOAA.NERRS:gndbcwq:1,2015-09-01T19:00:00Z,30.3836,-88.4364,0.61,23.5,1111122 
NERRS,ioos:station:NOAA.NERRS:gndbcwq:1,2015-09-01T20:00:00Z,30.3836,-88.4364,0.65,24.7,1111122 
NERRS,ioos:station:NOAA.NERRS:gndbcwq:1,2015-09-01T21:00:00Z,30.3836,-88.4364,0.65,24.8,1111122 
NERRS,ioos:station:NOAA.NERRS:gndbcwq:1,2015-09-01T22:00:00Z,30.3836,-88.4364,0.6,24.4,1111122 
NERRS,ioos:station:NOAA.NERRS:gndbcwq:1,2015-09-01T23:00:00Z,30.3836,-88.4364,0.53,23.4,1111122 
NERRS,ioos:station:NOAA.NERRS:gndbcwq:1,2015-09-02T00:00:00Z,30.3836,-88.4364,0.56,23.8,1111122 
NERRS,ioos:station:NOAA.NERRS:gndbcwq:1,2015-09-02T01:00:00Z,30.3836,-88.4364,0.6,24.1,1111122 
NERRS,ioos:station:NOAA.NERRS:gndbcwq:1,2015-09-02T02:00:00Z,30.3836,-88.4364,0.64,24.4,1111122 
NERRS,ioos:station:NOAA.NERRS:gndbcwq:1,2015-09-02T03:00:00Z,30.3836,-88.4364,0.67,24.5,1111122 
NERRS,ioos:station:NOAA.NERRS:gndbcwq:1,2015-09-02T04:00:00Z,30.3836,-88.4364,0.69,25.2,1111122 
NERRS,ioos:station:NOAA.NERRS:gndbcwq:1,2015-09-02T05:00:00Z,30.3836,-88.4364,0.69,25.4,1111122 
NERRS,ioos:station:NOAA.NERRS:gndbcwq:1,2015-09-02T06:00:00Z,30.3836,-88.4364,0.64,25.0,1111122 
NERRS,ioos:station:NOAA.NERRS:gndbcwq:1,2015-09-02T08:00:00Z,30.3836,-88.4364,0.6,24.2,1111122 
NERRS,ioos:station:NOAA.NERRS:gndbcwq:1,2015-09-02T09:00:00Z,30.3836,-88.4364,0.58,24.1,1111122 
NERRS,ioos:station:NOAA.NERRS:gndbcwq:1,2015-09-02T10:00:00Z,30.3836,-88.4364,0.53,23.6,1111122 
NERRS,ioos:station:NOAA.NERRS:gndbcwq:1,2015-09-02T11:00:00Z,30.3836,-88.4364,0.45,23.0,1111122 
NERRS,ioos:station:NOAA.NERRS:gndbcwq:1,2015-09-02T12:00:00Z,30.3836,-88.4364,0.41,22.3,1111122 
NERRS,ioos:station:NOAA.NERRS:gndbcwq:1,2015-09-02T13:00:00Z,30.3836,-88.4364,0.41,22.2,1111122 
NERRS,ioos:station:NOAA.NERRS:gndbcwq:1,2015-09-02T14:00:00Z,30.3836,-88.4364,0.43,22.9,1111122 
NERRS,ioos:station:NOAA.NERRS:gndbcwq:1,2015-09-02T15:00:00Z,30.3836,-88.4364,0.46,23.3,1111122 
NERRS,ioos:station:NOAA.NERRS:gndbcwq:1,2015-09-02T16:00:00Z,30.3836,-88.4364,0.48,23.4,1111122 
NERRS,ioos:station:NOAA.NERRS:gndbcwq:1,2015-09-02T17:00:00Z,30.3836,-88.4364,0.5,23.6,1111122 
NERRS,ioos:station:NOAA.NERRS:gndbcwq:1,2015-09-02T18:00:00Z,30.3836,-88.4364,0.49,23.3,1111122 
NERRS,ioos:station:NOAA.NERRS:gndbcwq:1,2015-09-02T19:00:00Z,30.3836,-88.4364,0.48,23.2,1111122 
NERRS,ioos:station:NOAA.NERRS:gndbcwq:1,2015-09-02T21:00:00Z,30.3836,-88.4364,0.54,23.8,1111122 
NERRS,ioos:station:NOAA.NERRS:gndbcwq:1,2015-09-02T22:00:00Z,30.3836,-88.4364,0.54,23.9,1111122 
NERRS,ioos:station:NOAA.NERRS:gndbcwq:1,2015-09-02T23:00:00Z,30.3836,-88.4364,0.54,23.8,1111122 
NERRS,ioos:station:NOAA.NERRS:gndbcwq:1,2015-09-03T00:00:00Z,30.3836,-88.4364,0.55,24.1,1111122 
NERRS,ioos:station:NOAA.NERRS:gndbcwq:1,2015-09-03T01:00:00Z,30.3836,-88.4364,0.57,24.3,1111122 
NERRS,ioos:station:NOAA.NERRS:gndbcwq:1,2015-09-03T02:00:00Z,30.3836,-88.4364,0.62,24.7,1111122 
NERRS,ioos:station:NOAA.NERRS:gndbcwq:1,2015-09-03T03:00:00Z,30.3836,-88.4364,0.66,25.2,1111122 
NERRS,ioos:station:NOAA.NERRS:gndbcwq:1,2015-09-03T04:00:00Z,30.3836,-88.4364,0.71,26.0,1111122 
NERRS,ioos:station:NOAA.NERRS:gndbcwq:1,2015-09-03T05:00:00Z,30.3836,-88.4364,0.73,26.6,1111122 
NERRS,ioos:station:NOAA.NERRS:gndbcwq:1,2015-09-03T06:00:00Z,30.3836,-88.4364,0.72,26.8,1111122 
NERRS,ioos:station:NOAA.NERRS:gndbcwq:1,2015-09-03T07:00:00Z,30.3836,-88.4364,0.67,26.0,1111122 
NERRS,ioos:station:NOAA.NERRS:gndbcwq:1,2015-09-03T08:00:00Z,30.3836,-88.4364,0.64,25.6,1111122 
NERRS,ioos:station:NOAA.NERRS:gndbcwq:1,2015-09-03T09:00:00Z,30.3836,-88.4364,0.64,24.9,1111122 
NERRS,ioos:station:NOAA.NERRS:gndbcwq:1,2015-09-03T10:00:00Z,30.3836,-88.4364,0.65,25.3,1111122 
NERRS,ioos:station:NOAA.NERRS:gndbcwq:1,2015-09-03T11:00:00Z,30.3836,-88.4364,0.59,24.8,1111122 
NERRS,ioos:station:NOAA.NERRS:gndbcwq:1,2015-09-03T12:00:00Z,30.3836,-88.4364,0.48,24.7,1111122 
NERRS,ioos:station:NOAA.NERRS:gndbcwq:1,2015-09-03T13:00:00Z,30.3836,-88.4364,0.4,23.8,1111122 
NERRS,ioos:station:NOAA.NERRS:gndbcwq:1,2015-09-03T14:00:00Z,30.3836,-88.4364,0.4,23.4,1111122 
NERRS,ioos:station:NOAA.NERRS:gndbcwq:1,2015-09-03T15:00:00Z,30.3836,-88.4364,0.45,23.8,1111122 
NERRS,ioos:station:NOAA.NERRS:gndbcwq:1,2015-09-03T16:00:00Z,30.3836,-88.4364,0.46,23.8,1111122 
NERRS,ioos:station:NOAA.NERRS:gndbcwq:1,2015-09-03T18:00:00Z,30.3836,-88.4364,0.43,23.8,1111122 
NERRS,ioos:station:NOAA.NERRS:gndbcwq:1,2015-09-03T19:00:00Z,30.3836,-88.4364,0.46,25.1,1111122 
NERRS,ioos:station:NOAA.NERRS:gndbcwq:1,2015-09-03T20:00:00Z,30.3836,-88.4364,0.5,25.6,1111122 
NERRS,ioos:station:NOAA.NERRS:gndbcwq:1,2015-09-03T21:00:00Z,30.3836,-88.4364,0.51,25.6,1111122 
NERRS,ioos:station:NOAA.NERRS:gndbcwq:1,2015-09-03T22:00:00Z,30.3836,-88.4364,0.48,24.8,1111122 
NERRS,ioos:station:NOAA.NERRS:gndbcwq:1,2015-09-03T23:00:00Z,30.3836,-88.4364,0.49,25.6,1111122 
NERRS,ioos:station:NOAA.NERRS:gndbcwq:1,2015-09-04T00:00:00Z,30.3836,-88.4364,0.54,26.1,1111122 
NERRS,ioos:station:NOAA.NERRS:gndbcwq:1,2015-09-04T01:00:00Z,30.3836,-88.4364,0.56,25.8,1111122 
NERRS,ioos:station:NOAA.NERRS:gndbcwq:1,2015-09-04T02:00:00Z,30.3836,-88.4364,0.58,26.5,1111122 
NERRS,ioos:station:NOAA.NERRS:gndbcwq:1,2015-09-04T03:00:00Z,30.3836,-88.4364,0.62,26.8,1111122 
NERRS,ioos:station:NOAA.NERRS:gndbcwq:1,2015-09-04T04:00:00Z,30.3836,-88.4364,0.66,27.4,1111122 
NERRS,ioos:station:NOAA.NERRS:gndbcwq:1,2015-09-04T05:00:00Z,30.3836,-88.4364,0.7,28.2,1111122 
NERRS,ioos:station:NOAA.NERRS:gndbcwq:1,2015-09-04T07:00:00Z,30.3836,-88.4364,0.7,28.5,1111122 
NERRS,ioos:station:NOAA.NERRS:gndbcwq:1,2015-09-04T08:00:00Z,30.3836,-88.4364,0.68,27.3,1111122 
NERRS,ioos:station:NOAA.NERRS:gndbcwq:1,2015-09-04T09:00:00Z,30.3836,-88.4364,0.66,26.9,1111122 
NERRS,ioos:station:NOAA.NERRS:gndbcwq:1,2015-09-04T11:00:00Z,30.3836,-88.4364,0.56,26.6,1111122 
NERRS,ioos:station:NOAA.NERRS:gndbcwq:1,2015-09-04T12:00:00Z,30.3836,-88.4364,0.5,26.0,1111122 
NERRS,ioos:station:NOAA.NERRS:gndbcwq:1,2015-09-04T13:00:00Z,30.3836,-88.4364,0.45,25.2,1111122 
NERRS,ioos:station:NOAA.NERRS:gndbcwq:1,2015-09-04T14:00:00Z,30.3836,-88.4364,0.41,24.9,1111122 
NERRS,ioos:station:NOAA.NERRS:gndbcwq:1,2015-09-04T15:00:00Z,30.3836,-88.4364,0.38,24.2,1111122 
NERRS,ioos:station:NOAA.NERRS:gndbcwq:1,2015-09-04T16:00:00Z,30.3836,-88.4364,0.34,23.9,1111122 
NERRS,ioos:station:NOAA.NERRS:gndbcwq:1,2015-09-04T17:00:00Z,30.3836,-88.4364,0.35,24.3,1111122 
NERRS,ioos:station:NOAA.NERRS:gndbcwq:1,2015-09-04T18:00:00Z,30.3836,-88.4364,0.36,24.7,1111122 
NERRS,ioos:station:NOAA.NERRS:gndbcwq:1,2015-09-04T19:00:00Z,30.3836,-88.4364,0.36,24.6,1111122 
NERRS,ioos:station:NOAA.NERRS:gndbcwq:1,2015-09-04T20:00:00Z,30.3836,-88.4364,0.34,24.5,1111122 
NERRS,ioos:station:NOAA.NERRS:gndbcwq:1,2015-09-04T21:00:00Z,30.3836,-88.4364,0.36,24.6,1111122 
NERRS,ioos:station:NOAA.NERRS:gndbcwq:1,2015-09-04T22:00:00Z,30.3836,-88.4364,0.39,25.0,1111122 
NERRS,ioos:station:NOAA.NERRS:gndbcwq:1,2015-09-04T23:00:00Z,30.3836,-88.4364,0.46,25.6,1111122 
NERRS,ioos:station:NOAA.NERRS:gndbcwq:1,2015-09-05T00:00:00Z,30.3836,-88.4364,0.5,26.0,1111122 
NERRS,ioos:station:NOAA.NERRS:gndbcwq:1,2015-09-05T01:00:00Z,30.3836,-88.4364,0.53,26.2,1111122 
NERRS,ioos:station:NOAA.NERRS:gndbcwq:1,2015-09-05T02:00:00Z,30.3836,-88.4364,0.52,25.8,1111122 
NERRS,ioos:station:NOAA.NERRS:gndbcwq:1,2015-09-05T03:00:00Z,30.3836,-88.4364,0.57,26.5,1111122 
NERRS,ioos:station:NOAA.NERRS:gndbcwq:1,2015-09-05T04:00:00Z,30.3836,-88.4364,0.62,27.1,1111122 
NERRS,ioos:station:NOAA.NERRS:gndbcwq:1,2015-09-05T05:00:00Z,30.3836,-88.4364,0.66,27.9,1111122 
NERRS,ioos:station:NOAA.NERRS:gndbcwq:1,2015-09-05T07:00:00Z,30.3836,-88.4364,0.7,28.5,1111122 
NERRS,ioos:station:NOAA.NERRS:gndbcwq:1,2015-09-05T08:00:00Z,30.3836,-88.4364,0.68,27.8,1111122 
NERRS,ioos:station:NOAA.NERRS:gndbcwq:1,2015-09-05T09:00:00Z,30.3836,-88.4364,0.66,27.1,1111122 
NERRS,ioos:station:NOAA.NERRS:gndbcwq:1,2015-09-05T10:00:00Z,30.3836,-88.4364,0.61,27.0,1111122 
NERRS,ioos:station:NOAA.NERRS:gndbcwq:1,2015-09-05T11:00:00Z,30.3836,-88.4364,0.6,26.5,1111122 
NERRS,ioos:station:NOAA.NERRS:gndbcwq:1,2015-09-05T12:00:00Z,30.3836,-88.4364,0.55,26.7,1111122 
NERRS,ioos:station:NOAA.NERRS:gndbcwq:1,2015-09-05T13:00:00Z,30.3836,-88.4364,0.49,26.2,1111122 
NERRS,ioos:station:NOAA.NERRS:gndbcwq:1,2015-09-05T14:00:00Z,30.3836,-88.4364,0.42,25.4,1111122 
NERRS,ioos:station:NOAA.NERRS:gndbcwq:1,2015-09-05T15:00:00Z,30.3836,-88.4364,0.37,24.8,1111122 
NERRS,ioos:station:NOAA.NERRS:gndbcwq:1,2015-09-05T16:00:00Z,30.3836,-88.4364,0.33,24.1,1111122 
NERRS,ioos:station:NOAA.NERRS:gndbcwq:1,2015-09-05T17:00:00Z,30.3836,-88.4364,0.33,24.6,1111122 
NERRS,ioos:station:NOAA.NERRS:gndbcwq:1,2015-09-05T18:00:00Z,30.3836,-88.4364,0.33,24.7,1111122 
NERRS,ioos:station:NOAA.NERRS:gndbcwq:1,2015-09-05T19:00:00Z,30.3836,-88.4364,0.33,24.9,1111122 
NERRS,ioos:station:NOAA.NERRS:gndbcwq:1,2015-09-05T20:00:00Z,30.3836,-88.4364,0.26,22.9,1111122 
NERRS,ioos:station:NOAA.NERRS:gndbcwq:1,2015-09-05T21:00:00Z,30.3836,-88.4364,0.26,22.7,1111122 
NERRS,ioos:station:NOAA.NERRS:gndbcwq:1,2015-09-05T22:00:00Z,30.3836,-88.4364,0.29,23.6,1111122 
NERRS,ioos:station:NOAA.NERRS:gndbcwq:1,2015-09-05T23:00:00Z,30.3836,-88.4364,0.33,24.1,1111122 
NERRS,ioos:station:NOAA.NERRS:gndbcwq:1,2015-09-06T00:00:00Z,30.3836,-88.4364,0.43,24.7,1111122 
NERRS,ioos:station:NOAA.NERRS:gndbcwq:1,2015-09-06T01:00:00Z,30.3836,-88.4364,0.48,25.0,1111122 
NERRS,ioos:station:NOAA.NERRS:gndbcwq:1,2015-09-06T02:00:00Z,30.3836,-88.4364,0.48,25.0,1111122 
NERRS,ioos:station:NOAA.NERRS:gndbcwq:1,2015-09-06T03:00:00Z,30.3836,-88.4364,0.52,25.4,1111122 
NERRS,ioos:station:NOAA.NERRS:gndbcwq:1,2015-09-06T04:00:00Z,30.3836,-88.4364,0.57,26.0,1111122 
NERRS,ioos:station:NOAA.NERRS:gndbcwq:1,2015-09-06T05:00:00Z,30.3836,-88.4364,0.57,25.6,1111122 
NERRS,ioos:station:NOAA.NERRS:gndbcwq:1,2015-09-06T06:00:00Z,30.3836,-88.4364,0.63,26.6,1111122 
NERRS,ioos:station:NOAA.NERRS:gndbcwq:1,2015-09-06T07:00:00Z,30.3836,-88.4364,0.7,27.8,1111122 
NERRS,ioos:station:NOAA.NERRS:gndbcwq:1,2015-09-06T08:00:00Z,30.3836,-88.4364,0.76,28.8,1111122 
NERRS,ioos:station:NOAA.NERRS:gndbcwq:1,2015-09-06T09:00:00Z,30.3836,-88.4364,0.76,29.1,1111122 
NERRS,ioos:station:NOAA.NERRS:gndbcwq:1,2015-09-06T10:00:00Z,30.3836,-88.4364,0.75,29.2,1111122 
NERRS,ioos:station:NOAA.NERRS:gndbcwq:1,2015-09-06T11:00:00Z,30.3836,-88.4364,0.77,29.2,1111122 
NERRS,ioos:station:NOAA.NERRS:gndbcwq:1,2015-09-06T12:00:00Z,30.3836,-88.4364,0.76,29.8,1111122 
NERRS,ioos:station:NOAA.NERRS:gndbcwq:1,2015-09-06T13:00:00Z,30.3836,-88.4364,0.7,28.8,1111122 
NERRS,ioos:station:NOAA.NERRS:gndbcwq:1,2015-09-06T14:00:00Z,30.3836,-88.4364,0.62,27.7,1111122 
NERRS,ioos:station:NOAA.NERRS:gndbcwq:1,2015-09-06T15:00:00Z,30.3836,-88.4364,0.53,26.8,1111122 
NERRS,ioos:station:NOAA.NERRS:gndbcwq:1,2015-09-06T16:00:00Z,30.3836,-88.4364,0.48,26.0,1111122 
NERRS,ioos:station:NOAA.NERRS:gndbcwq:1,2015-09-06T17:00:00Z,30.3836,-88.4364,0.45,25.7,1111122 
NERRS,ioos:station:NOAA.NERRS:gndbcwq:1,2015-09-06T18:00:00Z,30.3836,-88.4364,0.41,24.8,1111122 
NERRS,ioos:station:NOAA.NERRS:gndbcwq:1,2015-09-06T19:00:00Z,30.3836,-88.4364,0.45,25.4,1111122 
NERRS,ioos:station:NOAA.NERRS:gndbcwq:1,2015-09-06T20:00:00Z,30.3836,-88.4364,0.37,25.3,1111122 
NERRS,ioos:station:NOAA.NERRS:gndbcwq:1,2015-09-06T21:00:00Z,30.3836,-88.4364,0.37,24.5,1111122 
NERRS,ioos:station:NOAA.NERRS:gndbcwq:1,2015-09-06T22:00:00Z,30.3836,-88.4364,0.42,25.2,1111122 
NERRS,ioos:station:NOAA.NERRS:gndbcwq:1,2015-09-06T23:00:00Z,30.3836,-88.4364,0.45,25.5,1111122 
NERRS,ioos:station:NOAA.NERRS:gndbcwq:1,2015-09-07T00:00:00Z,30.3836,-88.4364,0.48,25.7,1111122 
NERRS,ioos:station:NOAA.NERRS:gndbcwq:1,2015-09-07T01:00:00Z,30.3836,-88.4364,0.54,25.8,1111122 
NERRS,ioos:station:NOAA.NERRS:gndbcwq:1,2015-09-07T02:00:00Z,30.3836,-88.4364,0.56,26.0,1111122 
NERRS,ioos:station:NOAA.NERRS:gndbcwq:1,2015-09-07T03:00:00Z,30.3836,-88.4364,0.53,26.0,1111122 
NERRS,ioos:station:NOAA.NERRS:gndbcwq:1,2015-09-07T04:00:00Z,30.3836,-88.4364,0.63,26.2,1111122 
NERRS,ioos:station:NOAA.NERRS:gndbcwq:1,2015-09-07T05:00:00Z,30.3836,-88.4364,0.68,27.3,1111122 
NERRS,ioos:station:NOAA.NERRS:gndbcwq:1,2015-09-07T06:00:00Z,30.3836,-88.4364,0.72,28.1,1111122 
NERRS,ioos:station:NOAA.NERRS:gndbcwq:1,2015-09-07T07:00:00Z,30.3836,-88.4364,0.74,28.5,1111122 
NERRS,ioos:station:NOAA.NERRS:gndbcwq:1,2015-09-07T08:00:00Z,30.3836,-88.4364,0.76,29.1,1111122 
NERRS,ioos:station:NOAA.NERRS:gndbcwq:1,2015-09-07T09:00:00Z,30.3836,-88.4364,0.78,29.9,1111122 
NERRS,ioos:station:NOAA.NERRS:gndbcwq:1,2015-09-07T10:00:00Z,30.3836,-88.4364,0.78,30.2,1111122 
NERRS,ioos:station:NOAA.NERRS:gndbcwq:1,2015-09-07T11:00:00Z,30.3836,-88.4364,0.76,28.7,1111122 
NERRS,ioos:station:NOAA.NERRS:gndbcwq:1,2015-09-07T12:00:00Z,30.3836,-88.4364,0.73,29.4,1111122 
NERRS,ioos:station:NOAA.NERRS:gndbcwq:1,2015-09-07T13:00:00Z,30.3836,-88.4364,0.71,28.5,1111122 
NERRS,ioos:station:NOAA.NERRS:gndbcwq:1,2015-09-07T14:00:00Z,30.3836,-88.4364,0.73,28.8,1111122 
NERRS,ioos:station:NOAA.NERRS:gndbcwq:1,2015-09-07T15:00:00Z,30.3836,-88.4364,0.69,28.6,1111122 
NERRS,ioos:station:NOAA.NERRS:gndbcwq:1,2015-09-07T16:00:00Z,30.3836,-88.4364,0.59,27.0,1111122 
NERRS,ioos:station:NOAA.NERRS:gndbcwq:1,2015-09-07T17:00:00Z,30.3836,-88.4364,0.49,26.5,1111122 
NERRS,ioos:station:NOAA.NERRS:gndbcwq:1,2015-09-07T18:00:00Z,30.3836,-88.4364,0.44,26.2,1111122 
NERRS,ioos:station:NOAA.NERRS:gndbcwq:1,2015-09-07T19:00:00Z,30.3836,-88.4364,0.42,25.6,1111122 
NERRS,ioos:station:NOAA.NERRS:gndbcwq:1,2015-09-07T20:00:00Z,30.3836,-88.4364,0.42,25.1,1111122 
NERRS,ioos:station:NOAA.NERRS:gndbcwq:1,2015-09-07T21:00:00Z,30.3836,-88.4364,0.43,24.8,1111122 
NERRS,ioos:station:NOAA.NERRS:gndbcwq:1,2015-09-07T22:00:00Z,30.3836,-88.4364,0.4,24.4,1111122 
NERRS,ioos:station:NOAA.NERRS:gndbcwq:1,2015-09-07T23:00:00Z,30.3836,-88.4364,0.42,25.2,1111122 
NERRS,ioos:station:NOAA.NERRS:gndbcwq:1,2015-09-08T00:00:00Z,30.3836,-88.4364,0.44,24.4,1111122 
NERRS,ioos:station:NOAA.NERRS:gndbcwq:1,2015-09-08T01:00:00Z,30.3836,-88.4364,0.5,25.4,1111122 
NERRS,ioos:station:NOAA.NERRS:gndbcwq:1,2015-09-08T02:00:00Z,30.3836,-88.4364,0.54,26.1,1111122 
NERRS,ioos:station:NOAA.NERRS:gndbcwq:1,2015-09-08T03:00:00Z,30.3836,-88.4364,0.58,26.4,1111122 
NERRS,ioos:station:NOAA.NERRS:gndbcwq:1,2015-09-08T04:00:00Z,30.3836,-88.4364,0.58,26.3,1111122 
NERRS,ioos:station:NOAA.NERRS:gndbcwq:1,2015-09-08T05:00:00Z,30.3836,-88.4364,0.6,26.5,1111122 
NERRS,ioos:station:NOAA.NERRS:gndbcwq:1,2015-09-08T06:00:00Z,30.3836,-88.4364,0.62,27.0,1111122 
NERRS,ioos:station:NOAA.NERRS:gndbcwq:1,2015-09-08T07:00:00Z,30.3836,-88.4364,0.66,27.5,1111122 
NERRS,ioos:station:NOAA.NERRS:gndbcwq:1,2015-09-08T08:00:00Z,30.3836,-88.4364,0.7,28.4,1111122 
NERRS,ioos:station:NOAA.NERRS:gndbcwq:1,2015-09-08T09:00:00Z,30.3836,-88.4364,0.74,28.9,1111122 
NERRS,ioos:station:NOAA.NERRS:gndbcwq:1,2015-09-08T10:00:00Z,30.3836,-88.4364,0.75,29.2,1111122 
NERRS,ioos:station:NOAA.NERRS:gndbcwq:1,2015-09-08T11:00:00Z,30.3836,-88.4364,0.76,29.5,1111122 
NERRS,ioos:station:NOAA.NERRS:gndbcwq:1,2015-09-08T12:00:00Z,30.3836,-88.4364,0.75,28.7,1111122 
NERRS,ioos:station:NOAA.NERRS:gndbcwq:1,2015-09-08T13:00:00Z,30.3836,-88.4364,0.73,28.9,1111122 
NERRS,ioos:station:NOAA.NERRS:gndbcwq:1,2015-09-08T14:00:00Z,30.3836,-88.4364,0.7,28.8,1111122 
NERRS,ioos:station:NOAA.NERRS:gndbcwq:1,2015-09-08T15:00:00Z,30.3836,-88.4364,0.69,28.4,1111122 
NERRS,ioos:station:NOAA.NERRS:gndbcwq:1,2015-09-08T16:00:00Z,30.3836,-88.4364,0.65,26.9,1111122 
NERRS,ioos:station:NOAA.NERRS:gndbcwq:1,2015-09-08T17:00:00Z,30.3836,-88.4364,0.6,26.7,1111122 
NERRS,ioos:station:NOAA.NERRS:gndbcwq:1,2015-09-08T18:00:00Z,30.3836,-88.4364,0.51,26.5,1111122 
NERRS,ioos:station:NOAA.NERRS:gndbcwq:1,2015-09-08T19:00:00Z,30.3836,-88.4364,0.43,25.6,1111122 
NERRS,ioos:station:NOAA.NERRS:gndbcwq:1,2015-09-08T20:00:00Z,30.3836,-88.4364,0.4,25.0,1111122 
NERRS,ioos:station:NOAA.NERRS:gndbcwq:1,2015-09-08T22:00:00Z,30.3836,-88.4364,0.44,25.6,1111122 
NERRS,ioos:station:NOAA.NERRS:gndbcwq:1,2015-09-08T23:00:00Z,30.3836,-88.4364,0.46,25.7,1111122 
NERRS,ioos:station:NOAA.NERRS:gndbcwq:1,2015-09-09T00:00:00Z,30.3836,-88.4364,0.46,24.6,1111122 
NERRS,ioos:station:NOAA.NERRS:gndbcwq:1,2015-09-09T01:00:00Z,30.3836,-88.4364,0.47,25.8,1111122 
NERRS,ioos:station:NOAA.NERRS:gndbcwq:1,2015-09-09T02:00:00Z,30.3836,-88.4364,0.53,26.4,1111122 
NERRS,ioos:station:NOAA.NERRS:gndbcwq:1,2015-09-09T03:00:00Z,30.3836,-88.4364,0.57,26.7,1111122 
NERRS,ioos:station:NOAA.NERRS:gndbcwq:1,2015-09-09T04:00:00Z,30.3836,-88.4364,0.6,26.9,1111122 
NERRS,ioos:station:NOAA.NERRS:gndbcwq:1,2015-09-09T05:00:00Z,30.3836,-88.4364,0.61,27.0,1111122 
NERRS,ioos:station:NOAA.NERRS:gndbcwq:1,2015-09-09T06:00:00Z,30.3836,-88.4364,0.62,27.1,1111122 
NERRS,ioos:station:NOAA.NERRS:gndbcwq:1,2015-09-09T07:00:00Z,30.3836,-88.4364,0.64,27.3,1111122 
NERRS,ioos:station:NOAA.NERRS:gndbcwq:1,2015-09-09T08:00:00Z,30.3836,-88.4364,0.67,27.7,1111122 
NERRS,ioos:station:NOAA.NERRS:gndbcwq:1,2015-09-09T09:00:00Z,30.3836,-88.4364,0.68,28.0,1111122 
NERRS,ioos:station:NOAA.NERRS:gndbcwq:1,2015-09-09T10:00:00Z,30.3836,-88.4364,0.69,28.2,1111122 
NERRS,ioos:station:NOAA.NERRS:gndbcwq:1,2015-09-09T11:00:00Z,30.3836,-88.4364,0.72,28.6,1111122 
NERRS,ioos:station:NOAA.NERRS:gndbcwq:1,2015-09-09T12:00:00Z,30.3836,-88.4364,0.74,29.1,1111122 
NERRS,ioos:station:NOAA.NERRS:gndbcwq:1,2015-09-09T13:00:00Z,30.3836,-88.4364,0.74,29.3,1111122 
NERRS,ioos:station:NOAA.NERRS:gndbcwq:1,2015-09-09T14:00:00Z,30.3836,-88.4364,0.72,29.2,1111122 
NERRS,ioos:station:NOAA.NERRS:gndbcwq:1,2015-09-09T15:00:00Z,30.3836,-88.4364,0.7,28.8,1111122 
NERRS,ioos:station:NOAA.NERRS:gndbcwq:1,2015-09-09T16:00:00Z,30.3836,-88.4364,0.67,27.9,1111122 
NERRS,ioos:station:NOAA.NERRS:gndbcwq:1,2015-09-09T17:00:00Z,30.3836,-88.4364,0.61,27.3,1111122 
NERRS,ioos:station:NOAA.NERRS:gndbcwq:1,2015-09-09T18:00:00Z,30.3836,-88.4364,0.53,26.3,1111122 
NERRS,ioos:station:NOAA.NERRS:gndbcwq:1,2015-09-09T19:00:00Z,30.3836,-88.4364,0.47,25.6,1111122 
NERRS,ioos:station:NOAA.NERRS:gndbcwq:1,2015-09-09T20:00:00Z,30.3836,-88.4364,0.41,25.4,1111122 
NERRS,ioos:station:NOAA.NERRS:gndbcwq:1,2015-09-09T21:00:00Z,30.3836,-88.4364,0.4,25.3,1111122 
NERRS,ioos:station:NOAA.NERRS:gndbcwq:1,2015-09-09T22:00:00Z,30.3836,-88.4364,0.43,25.7,1111122 
NERRS,ioos:station:NOAA.NERRS:gndbcwq:1,2015-09-09T23:00:00Z,30.3836,-88.4364,0.42,25.5,1111122 
NERRS,ioos:station:NOAA.NERRS:gndbcwq:1,2015-09-10T00:00:00Z,30.3836,-88.4364,0.43,25.9,1111122 
NERRS,ioos:station:NOAA.NERRS:gndbcwq:1,2015-09-10T01:00:00Z,30.3836,-88.4364,0.41,25.0,1111122 
NERRS,ioos:station:NOAA.NERRS:gndbcwq:1,2015-09-10T02:00:00Z,30.3836,-88.4364,0.46,26.1,1111122 
NERRS,ioos:station:NOAA.NERRS:gndbcwq:1,2015-09-10T03:00:00Z,30.3836,-88.4364,0.48,26.1,1111122 
NERRS,ioos:station:NOAA.NERRS:gndbcwq:1,2015-09-10T04:00:00Z,30.3836,-88.4364,0.52,26.4,1111122 
NERRS,ioos:station:NOAA.NERRS:gndbcwq:1,2015-09-10T05:00:00Z,30.3836,-88.4364,0.52,26.5,1111122 
NERRS,ioos:station:NOAA.NERRS:gndbcwq:1,2015-09-10T06:00:00Z,30.3836,-88.4364,0.49,26.0,1111122 
NERRS,ioos:station:NOAA.NERRS:gndbcwq:1,2015-09-10T07:00:00Z,30.3836,-88.4364,0.45,25.4,1111122 
NERRS,ioos:station:NOAA.NERRS:gndbcwq:1,2015-09-10T08:00:00Z,30.3836,-88.4364,0.47,25.9,1111122 
NERRS,ioos:station:NOAA.NERRS:gndbcwq:1,2015-09-10T09:00:00Z,30.3836,-88.4364,0.53,26.3,1111122 
NERRS,ioos:station:NOAA.NERRS:gndbcwq:1,2015-09-10T10:00:00Z,30.3836,-88.4364,0.57,26.6,1111122 
NERRS,ioos:station:NOAA.NERRS:gndbcwq:1,2015-09-10T11:00:00Z,30.3836,-88.4364,0.62,27.3,1111122 
NERRS,ioos:station:NOAA.NERRS:gndbcwq:1,2015-09-10T12:00:00Z,30.3836,-88.4364,0.65,27.8,1111122 
NERRS,ioos:station:NOAA.NERRS:gndbcwq:1,2015-09-10T13:00:00Z,30.3836,-88.4364,0.66,28.0,1111122 
NERRS,ioos:station:NOAA.NERRS:gndbcwq:1,2015-09-10T14:00:00Z,30.3836,-88.4364,0.67,28.4,1111122 
NERRS,ioos:station:NOAA.NERRS:gndbcwq:1,2015-09-10T15:00:00Z,30.3836,-88.4364,0.66,27.4,1111122 
NERRS,ioos:station:NOAA.NERRS:gndbcwq:1,2015-09-10T16:00:00Z,30.3836,-88.4364,0.63,27.0,1111122 
NERRS,ioos:station:NOAA.NERRS:gndbcwq:1,2015-09-10T17:00:00Z,30.3836,-88.4364,0.57,26.9,1111122 
NERRS,ioos:station:NOAA.NERRS:gndbcwq:1,2015-09-10T18:00:00Z,30.3836,-88.4364,0.52,26.6,1111122 
NERRS,ioos:station:NOAA.NERRS:gndbcwq:1,2015-09-10T19:00:00Z,30.3836,-88.4364,0.49,26.4,1111122 
NERRS,ioos:station:NOAA.NERRS:gndbcwq:1,2015-09-10T21:00:00Z,30.3836,-88.4364,0.34,25.3,1111122 
NERRS,ioos:station:NOAA.NERRS:gndbcwq:1,2015-09-10T22:00:00Z,30.3836,-88.4364,0.27,24.9,1111122 
NERRS,ioos:station:NOAA.NERRS:gndbcwq:1,2015-09-10T23:00:00Z,30.3836,-88.4364,0.31,25.3,1111122 
NERRS,ioos:station:NOAA.NERRS:gndbcwq:1,2015-09-11T00:00:00Z,30.3836,-88.4364,0.35,25.4,1111122 
NERRS,ioos:station:NOAA.NERRS:gndbcwq:1,2015-09-11T01:00:00Z,30.3836,-88.4364,0.41,25.6,1111122 
NERRS,ioos:station:NOAA.NERRS:gndbcwq:1,2015-09-11T02:00:00Z,30.3836,-88.4364,0.41,25.7,1111122 
NERRS,ioos:station:NOAA.NERRS:gndbcwq:1,2015-09-11T03:00:00Z,30.3836,-88.4364,0.42,25.7,1111122 
NERRS,ioos:station:NOAA.NERRS:gndbcwq:1,2015-09-11T04:00:00Z,30.3836,-88.4364,0.45,26.0,1111122 
NERRS,ioos:station:NOAA.NERRS:gndbcwq:1,2015-09-11T05:00:00Z,30.3836,-88.4364,0.47,26.1,1111122 
NERRS,ioos:station:NOAA.NERRS:gndbcwq:1,2015-09-11T06:00:00Z,30.3836,-88.4364,0.44,25.9,1111122 
NERRS,ioos:station:NOAA.NERRS:gndbcwq:1,2015-09-11T07:00:00Z,30.3836,-88.4364,0.4,25.8,1111122 
NERRS,ioos:station:NOAA.NERRS:gndbcwq:1,2015-09-11T08:00:00Z,30.3836,-88.4364,0.41,25.2,1111122 
NERRS,ioos:station:NOAA.NERRS:gndbcwq:1,2015-09-11T09:00:00Z,30.3836,-88.4364,0.44,25.9,1111122 
NERRS,ioos:station:NOAA.NERRS:gndbcwq:1,2015-09-11T10:00:00Z,30.3836,-88.4364,0.51,26.2,1111122 
NERRS,ioos:station:NOAA.NERRS:gndbcwq:1,2015-09-11T11:00:00Z,30.3836,-88.4364,0.56,26.9,1111122 
NERRS,ioos:station:NOAA.NERRS:gndbcwq:1,2015-09-11T12:00:00Z,30.3836,-88.4364,0.58,27.7,1111122 
NERRS,ioos:station:NOAA.NERRS:gndbcwq:1,2015-09-11T14:00:00Z,30.3836,-88.4364,0.61,28.3,1111122 
NERRS,ioos:station:NOAA.NERRS:gndbcwq:1,2015-09-11T15:00:00Z,30.3836,-88.4364,0.57,26.0,1111122 